Location: Wellington Beach
(38.3662°N, 77.1955°W)
Time: 06:32:02
(UTC+00:00)

Daily predictions for brighter satellites

Satellite Brightness Start Highest point End
(mag) Time Altitude Azimuth Time Altitude Azimuth Time Altitude Azimuth
Cosmos 1140 Rocket 3.5 22:15:26 10° SSW 22:20:36 81° ESE 22:25:47 10° NNE
Cosmos 1269 Rocket 4.1 22:17:10 10° SSW 22:22:24 86° WNW 22:27:42 10° NNE
SL-16 R/B 3.4 22:16:38 10° N 22:22:43 55° WNW 22:28:46 10° SW
BREEZE-M DEB (TANK) 3.0 22:24:17 10° WSW 22:26:15 39° NNW 22:29:39 10° NE
Thor Agena Rocket 3.7 22:21:54 10° SSE 22:27:09 90° S 22:32:27 10° NNW
Cosmos 1833 Rocket 2.7 22:22:50 10° NNW 22:28:26 60° ENE 22:33:59 10° SE
SAR-Lupe-3 3.9 22:26:29 10° NNE 22:29:05 51° ESE 22:31:39 10° S
SJ-12 4.0 22:27:21 10° SE 22:30:57 43° ENE 22:34:34 10° N
CZ-4C R/B 4.4 22:29:32 10° NW 22:31:31 12° NNW 22:33:42 10° N
YAOGAN 1 4.2 22:31:35 10° E 22:33:49 14° ENE 22:36:04 10° NNE
Cosmos 2251 Rocket 4.4 22:30:56 10° SSE 22:35:20 28° E 22:39:46 10° NE
Cosmos 1812 3.1 22:41:42 10° SSE 22:44:09 25° E 22:46:33 10° NE
IRS-P3 4.2 22:39:16 10° SSE 22:44:25 53° ENE 22:49:35 10° N
NOSS 3 (A) 3.5 22:43:19 10° SW 22:45:08 61° WNW 22:46:18 16° NNE
SJ 16-02 2.7 22:42:37 10° SE 22:45:35 18° E 22:47:35 14° ENE
Cosmos 1441 Rocket 4.4 22:43:33 10° NNW 22:46:43 39° W 22:49:52 10° SSW
Okean 2 Rocket 4.4 22:45:17 10° SE 22:48:17 18° E 22:50:29 13° NE
Cosmos 2058 4.0 22:46:04 10° NNE 22:49:04 20° ENE 22:52:03 10° SE
OAO 2 Rocket 3.7 22:48:51 10° WSW 22:53:47 58° S 22:57:57 15° E
Cosmos 1400 Rocket 4.0 22:51:23 10° SE 22:54:09 19° E 22:55:01 18° ENE
Cosmos 1869 2.8 22:51:49 10° S 22:55:20 77° E 22:58:50 10° N
ARIANE 5 R/B 2.6 22:51:24 10° SSE 22:56:22 82° WSW 23:01:23 10° NNW
Tiangong 0.8 22:55:07 10° WSW 22:57:14 17° SW 22:59:20 10° S
Cosmos 44 Rocket 3.2 22:53:53 10° SSW 22:58:33 67° ESE 23:03:04 12° NE
DNEPR-1 R/B 4.2 22:54:12 10° NW 22:58:51 70° WSW 23:04:22 10° SSE
SMAP 3.8 22:55:27 10° S 23:00:00 58° W 23:04:37 10° NNW
Timation 2 Rocket 4.2 22:53:56 10° SSW 23:00:46 87° ESE 23:07:42 10° NNE
AQUARIUS 4.2 23:04:52 10° S 23:09:16 81° WSW 23:13:42 10° NNW
Cosmos 1190 Rocket 4.2 23:06:41 10° S 23:11:46 52° ESE 23:16:32 12° NNE
Landsat 7 4.4 23:08:26 10° S 23:13:01 59° W 23:17:37 10° NNW
SL-4 R/B 4.0 23:11:05 10° WNW 23:13:55 23° SW 23:16:53 10° S
IRAS Rocket 4.4 23:08:55 10° SE 23:14:15 49° ENE 23:19:34 10° N
SL-19 R/B 4.4 23:11:10 10° SE 23:16:04 43° ENE 23:20:58 10° N
Meteor 2-12 Rocket 4.4 23:13:17 10° N 23:19:24 88° W 23:25:27 10° S
SPOT 1/Viking Rocket 3.4 23:17:03 10° SSE 23:22:10 69° ENE 23:27:19 10° N
Geosat FO 4.1 23:22:21 10° SSE 23:25:14 78° WSW 23:28:07 10° NNW
Cosmos 407 Rocket 4.3 23:20:13 10° SW 23:25:16 51° WNW 23:30:18 10° N
Cosmos 1954 Rocket 4.0 23:20:34 10° S 23:25:43 56° ESE 23:29:11 20° NNE
ATLAS 2AS CENTAUR R/B 4.4 23:24:15 10° N 23:26:50 12° NNE 23:27:19 12° NNE
ISS -1.9 23:24:16 10° W 23:27:04 24° NNW 23:28:15 20° N
Cosmos 1464 Rocket 3.9 23:23:12 10° S 23:29:29 73° E 23:35:44 10° N
Cosmos 1943 Rocket 2.7 23:24:19 10° SW 23:29:51 58° WNW 23:35:22 10° NNE
Cosmos 371 Rocket 3.5 23:25:23 10° S 23:29:55 45° ESE 23:31:10 36° ENE
Cosmos 2278 Rocket 2.7 23:24:38 10° SW 23:30:13 61° WNW 23:35:50 10° NNE
Cosmos 2151 Rocket 3.5 23:26:01 10° S 23:30:27 73° E 23:34:57 10° NNE
Cosmos 2082 Rocket 2.5 23:25:51 10° N 23:31:09 42° ENE 23:33:06 31° ESE
Aureole 3 Rocket 3.3 23:28:28 10° SSW 23:31:31 44° W 23:34:27 10° N
OAO 3 Rocket 3.4 23:27:11 10° WSW 23:31:43 54° S 23:33:15 36° ESE
NOAA 15 4.5 23:30:35 10° SSE 23:35:51 74° ENE 23:41:09 10° N
Cosmos 304 Rocket 3.8 23:31:27 10° S 23:36:02 54° ESE 23:37:16 41° NE
ATLAS 5 CENTAUR R/B 2.7 23:32:42 10° NW 23:37:23 54° WSW 23:43:07 10° SSE
Sich 1 Rocket 3.6 23:34:24 10° S 23:38:48 56° E 23:40:00 42° NE
MOS 1 Rocket 3.9 23:35:08 10° S 23:39:16 50° W 23:43:32 10° NNW
COSMO-SKYMED 1 2.5 23:36:03 11° N 23:40:04 75° WNW 23:44:10 10° SSW
USA 215 3.8 23:33:52 10° SSE 23:40:15 56° SW 23:46:41 10° NW
Spot 4 Rocket 3.9 23:35:58 10° SSE 23:41:04 87° ENE 23:46:11 10° NNW
Cosmos 2034 Rocket 3.9 23:35:26 10° S 23:41:28 59° E 23:47:34 10° NNE
Helios 1A Rocket 3.2 23:43:03 23° N 23:44:52 50° WNW 23:48:09 10° SSW
Okean 1 Rocket 2.9 23:41:33 10° S 23:45:55 67° E 23:46:31 59° NE
Timation 1 Rocket 4.3 23:40:15 10° NNW 23:46:15 89° WSW 23:52:12 10° SSE
